CSS (WENTIAN) (53239 NORAD) Tracking and Keplerian Element Data

This shows tracking and keplerian element data for the satellite.

Feedback or suggestion? Click here.




ElementValue
Catalog53239
NameCSS (WENTIAN)
Epoch Orbit8032
Epoch Day267.66382337
Epoch Year2022
RAAN332.7962
Inclination41.4724
Eccentricity0.0004529
Argument of Perigee12.8117
Mean Anonmoly121.5145
Mean Motion15.62658214
Decay Rate0.00010247
L11 53239U 22085A 22267.66382337 .00010247 00000+0 11476-3 0 9991
L22 53239 41.4724 332.7962 0004529 12.8117 121.5145 15.62658214 80320

Live tracking and technical data element details for CSS (WENTIAN) (NORAD 53239). CSS (WENTIAN) can be tracked NOW for your location showing map with azimuth and elevation plus other details from your city location.

Track the satellite on the map from your city or location and see movement details for azimuth, elevation, latitude, longitude, range, height, and movement on the map or in text.







IsCatalogInMostPopularTable: catalog: 53239, numindb: 3
Update: records affected: 1



GetName: 53239 CSS (WENTIAN)

Hit Count: updated at: Fri, 30 Sep 2022 03:36:45 GMT